Theta_e
321 323 324 325 323 322 319 319 320 322 324 326 328 329 328 325 325 325 325 323 315 314 319 318 315 316 315 315 316 313 310 309 309 309 309 309 308 307 307 307 306 306 303 301 301 303 303 304 308 310 310 310 309 309 311 312 313 313 314 314 314 314 315 315 313 314 316 314 313 314 314 313 311 312 315 315 315 316 317 316 316 317 316 316 316 316
320 323 325 325 321 318 318 318 317 320 321 320 322 323 324 325 324 321 321 320 315 314 321 320 315 315 314 313 313 313 313 312 311 311 310 309 308 307 307 307 307 306 303 301 300 301 302 305 308 309 308 309 309 308 310 311 312 312 313 314 315 313 312 312 311 311 312 313 314 314 312 311 309 309 312 312 312 314 314 313 313 313 313 313 313 313
320 322 322 320 319 318 318 318 315 317 318 318 320 320 322 324 322 322 321 317 314 315 322 322 317 316 315 313 312 312 313 312 310 311 311 311 310 308 307 307 307 307 305 303 301 300 301 304 307 308 308 308 309 309 309 310 311 311 311 312 313 311 308 308 308 309 309 309 311 310 308 309 309 308 309 310 310 310 310 310 310 310 310 311 311 310
323 325 321 316 319 319 319 318 316 316 317 319 321 319 322 323 321 324 323 316 314 316 320 320 317 316 315 314 314 313 311 311 311 311 310 310 311 310 308 308 307 307 306 304 302 300 300 303 306 307 307 307 308 308 308 309 309 310 309 309 309 307 305 306 306 307 307 306 307 307 305 307 308 306 306 307 306 306 307 306 306 307 307 307 307 307
323 324 318 315 319 319 319 320 318 319 321 322 321 319 321 322 321 323 323 319 321 322 319 318 320 321 321 317 317 317 315 313 312 312 312 310 309 310 309 309 308 307 305 304 303 300 299 302 304 306 307 307 307 307 307 308 308 309 308 307 307 306 304 304 306 307 307 307 307 304 301 301 301 300 301 302 300 301 302 302 302 303 303 304 303 303
320 318 316 319 319 317 320 321 321 323 323 324 324 321 319 321 322 321 321 320 325 329 321 318 325 333 334 327 320 321 320 318 315 314 314 311 309 309 309 309 308 307 306 304 302 301 299 301 304 306 307 307 306 307 307 307 307 308 307 306 305 304 303 303 304 306 306 307 308 307 303 300 297 294 295 297 297 297 298 298 298 299 299 299 298 296
318 317 320 326 322 319 321 321 323 322 320 325 327 323 319 318 320 321 321 321 327 331 320 317 326 331 330 325 324 327 325 324 321 317 315 313 311 310 309 308 308 307 306 304 302 300 299 301 304 306 306 306 306 306 306 305 305 306 306 305 304 303 302 302 302 303 305 305 305 306 307 304 302 297 293 292 294 294 294 293 293 294 294 293 293 292
318 317 320 324 325 323 321 322 323 319 321 328 326 323 322 319 319 320 321 323 327 327 322 323 326 325 323 322 324 327 328 328 326 322 319 316 313 311 309 308 309 307 305 304 303 301 300 301 304 306 306 306 306 306 306 304 303 304 304 304 303 302 302 302 303 303 305 306 304 305 305 303 302 302 295 291 291 291 290 290 290 290 290 290 291 291
318 321 320 320 322 323 324 328 325 318 322 327 320 320 322 321 321 322 322 324 324 323 326 329 324 322 327 329 324 322 324 327 326 325 323 320 317 313 310 309 308 307 304 303 303 301 300 300 304 306 306 306 306 306 305 304 303 303 303 303 302 302 301 302 303 303 303 305 305 306 306 301 297 297 294 290 289 289 289 290 290 290 290 290 290 291
317 320 319 319 321 321 326 330 323 319 321 320 316 320 323 323 325 327 327 327 326 324 326 329 325 322 327 330 327 322 323 328 327 324 322 319 320 318 313 310 308 306 304 303 302 300 300 300 303 306 306 306 305 305 304 304 304 304 303 302 302 302 301 301 301 302 301 301 303 305 307 303 295 291 290 289 289 289 289 289 289 289 289 290 290 290
316 314 314 318 320 320 324 323 317 319 320 317 322 328 328 329 330 331 330 326 327 327 324 328 328 324 325 329 328 326 328 331 327 325 325 322 322 322 316 310 308 306 303 302 302 300 300 300 302 305 306 305 304 304 303 303 303 304 303 302 302 301 301 300 299 300 301 301 303 304 306 304 297 291 289 288 288 288 289 289 289 289 289 289 290 289
315 316 316 318 320 321 324 321 316 317 316 320 333 333 328 332 330 329 330 328 329 328 324 326 324 322 324 326 327 327 325 326 325 326 331 332 329 325 318 310 307 305 303 302 302 301 299 299 301 304 305 304 303 302 302 302 302 302 302 301 301 300 300 299 298 299 301 300 302 303 303 303 298 292 289 289 289 289 289 289 289 289 289 289 289 289
318 320 320 317 316 319 324 324 320 317 316 322 332 329 326 330 328 327 330 328 328 324 319 320 321 321 323 324 328 327 323 324 324 322 326 329 327 326 321 311 305 304 303 301 301 301 299 298 300 303 303 302 301 301 301 301 301 300 300 300 300 299 298 298 297 298 300 299 300 301 300 299 296 292 290 290 289 289 289 290 289 289 289 288 288 288
322 321 319 317 317 320 321 322 322 320 320 321 325 327 327 328 330 333 332 326 326 324 317 316 320 324 325 325 325 323 322 325 324 321 321 320 319 321 319 311 305 303 303 301 301 301 300 299 300 302 302 301 300 300 300 300 300 299 298 299 299 298 297 297 297 297 298 298 299 299 298 296 293 290 290 290 290 290 290 290 290 289 289 289 289 288
323 322 320 318 319 321 318 319 324 325 320 318 321 325 326 327 333 337 335 329 327 328 320 315 321 329 331 328 323 320 323 327 326 324 319 315 314 314 312 309 305 303 302 301 300 300 299 298 300 301 301 300 300 299 299 298 298 298 298 298 298 296 295 296 295 295 296 297 297 296 295 293 291 290 290 290 290 290 291 290 290 290 289 289 289 288
319 323 326 319 318 320 317 319 325 325 320 318 322 325 325 327 327 326 326 325 325 327 324 320 323 328 328 325 323 322 323 324 323 321 319 318 316 312 311 309 305 303 301 301 300 300 299 298 299 301 301 300 300 299 298 297 297 297 297 297 297 297 295 295 294 294 295 296 295 294 292 291 290 290 290 290 290 290 290 290 290 290 289 289 288 288
320 325 323 315 317 319 317 320 322 322 322 320 320 323 322 321 320 320 321 318 318 323 324 323 324 325 325 323 320 320 321 323 322 320 320 319 316 313 314 310 305 302 301 300 300 300 298 297 298 300 300 300 299 298 297 297 297 297 297 296 296 295 295 294 294 294 294 295 294 292 290 290 290 290 290 290 290 290 290 290 290 289 289 288 288 288
322 326 320 315 319 316 313 319 321 317 319 322 323 323 318 317 321 326 326 324 324 326 326 324 323 324 325 324 321 319 320 321 321 322 321 318 316 317 315 309 304 302 301 300 300 299 297 297 298 299 299 299 299 299 297 297 297 297 297 297 295 294 294 293 293 294 294 293 292 290 289 289 289 290 290 290 290 290 290 289 289 289 288 288 288 288
321 323 321 316 319 316 312 318 322 315 314 321 325 322 321 325 327 325 326 329 329 328 329 327 323 321 322 323 324 323 324 325 322 321 321 319 320 320 315 308 304 302 301 300 300 299 297 296 297 298 298 299 299 298 298 297 297 296 296 296 295 295 295 294 293 293 293 293 292 290 289 288 289 290 290 290 290 290 290 289 289 288 288 288 288 288
321 321 324 316 314 316 315 318 322 319 315 316 319 317 320 326 326 325 325 327 328 329 330 329 326 324 324 325 325 323 326 330 325 320 320 321 321 318 314 310 305 302 301 300 299 299 297 295 296 297 298 298 298 297 297 297 296 296 295 295 295 295 295 293 292 292 292 292 291 289 288 288 288 289 290 290 290 290 290 289 288 288 288 288 288 288
319 319 324 318 312 316 320 320 321 321 318 318 320 319 319 320 322 325 324 324 329 331 332 331 327 325 327 326 326 325 324 324 325 324 324 325 320 315 313 311 305 301 300 300 299 298 297 295 295 296 297 297 297 297 297 297 296 295 295 295 295 294 294 292 292 292 291 291 289 288 288 288 288 289 289 289 289 289 289 288 288 288 288 288 287 287
319 321 324 322 317 319 323 320 316 318 319 319 320 320 319 319 321 324 322 323 326 327 329 330 326 326 329 325 324 327 325 319 320 322 327 327 319 314 315 311 305 302 300 299 299 298 296 294 294 295 296 296 296 295 296 296 295 295 295 295 294 294 293 292 292 291 291 290 289 288 288 288 288 288 288 289 289 289 288 288 288 288 288 288 287 287
322 326 326 324 321 320 321 315 312 316 317 316 319 321 320 318 320 324 324 324 325 324 325 326 325 325 325 322 322 327 327 321 317 318 322 324 318 316 317 310 303 302 300 299 298 297 294 294 294 294 295 295 295 295 295 295 295 294 294 294 294 293 293 293 292 292 291 290 289 288 288 288 288 288 288 288 288 288 288 287 287 287 287 287 287 286
321 323 323 323 321 319 318 315 313 314 315 316 320 322 321 318 319 323 325 325 326 326 324 323 325 324 319 317 318 320 320 320 318 317 319 321 318 316 316 310 304 302 300 299 299 296 293 293 293 293 293 294 294 294 294 294 294 294 294 294 294 294 293 293 292 292 291 290 289 288 287 287 288 288 288 288 288 288 287 287 287 287 287 287 286 286
318 320 322 324 324 322 322 320 317 315 315 319 322 320 319 319 319 321 323 324 325 325 324 324 326 323 318 316 314 316 320 322 322 320 317 320 322 319 314 309 303 301 300 299 298 296 294 293 292 292 293 293 293 294 293 293 294 293 293 293 293 293 293 293 292 292 290 290 289 288 287 287 287 287 287 288 288 287 287 287 287 286 286 286 286 285
320 322 321 322 324 325 325 324 323 319 316 318 322 319 318 319 320 320 321 322 323 324 324 324 324 322 321 317 313 317 323 324 324 322 317 318 320 315 312 310 304 301 300 299 297 297 295 294 292 292 293 293 293 293 293 293 293 293 293 293 293 293 293 292 292 291 290 289 288 288 287 287 287 287 287 287 287 287 287 286 286 286 286 286 286 285
323 325 320 320 323 323 324 325 324 321 319 318 320 319 318 318 318 319 321 322 323 324 324 323 323 323 323 320 318 321 325 325 325 326 324 322 321 316 312 309 305 301 300 298 297 296 295 294 293 292 292 293 293 293 293 293 293 293 292 292 292 293 293 292 291 290 289 289 288 288 287 287 287 287 287 287 287 287 287 286 286 286 286 285 285 285
323 324 320 321 322 320 323 326 322 320 321 320 319 319 318 317 318 319 321 321 323 325 325 322 322 324 322 321 322 323 325 326 326 326 325 323 323 322 315 309 306 302 299 298 297 296 295 295 293 292 292 293 293 293 293 292 292 292 292 292 291 292 292 291 290 289 289 288 288 287 287 287 287 287 287 287 287 287 286 286 286 286 286 285 285 285
322 322 321 322 321 319 322 324 322 320 320 320 319 319 318 317 318 319 319 320 322 323 323 323 324 325 322 320 321 322 322 323 322 322 321 318 319 321 316 312 310 305 301 299 297 296 295 295 294 292 292 292 293 293 292 292 292 292 291 291 291 291 291 291 290 289 288 288 288 287 287 287 286 287 286 286 286 286 286 286 286 286 285 285 285 285
320 321 322 322 321 321 321 322 322 321 320 320 319 319 318 318 318 318 318 319 320 321 321 322 324 324 320 319 320 323 325 321 317 319 319 317 319 321 319 317 314 307 303 300 298 296 295 295 294 292 291 292 292 292 292 292 292 291 291 291 291 290 290 290 289 289 288 288 287 287 286 286 286 286 286 286 286 286 286 286 286 286 285 285 285 285
317 321 321 320 321 322 321 321 322 322 321 321 320 320 318 317 317 317 318 318 319 320 320 320 322 321 320 320 320 322 324 319 317 319 320 317 318 320 319 318 315 309 305 301 298 297 296 295 294 292 291 292 292 292 292 292 292 291 291 290 290 290 290 290 289 288 288 288 287 287 286 286 286 286 286 286 285 285 285 286 286 285 285 285 284 284
317 319 320 320 322 323 321 322 321 319 319 320 321 320 319 317 316 316 317 317 318 319 319 320 320 320 319 321 320 320 321 320 318 320 319 317 316 316 317 318 316 312 307 302 299 297 296 295 294 292 291 291 292 292 292 292 292 291 290 290 290 290 289 289 289 288 288 288 287 287 286 286 286 286 285 285 285 284 285 285 285 285 285 284 284 284
317 318 319 321 323 323 321 323 321 318 320 321 321 321 319 317 316 316 316 317 317 318 319 320 320 318 318 319 319 319 320 321 319 318 317 316 315 313 314 315 315 313 308 303 300 298 297 295 294 292 292 292 292 292 292 292 292 291 291 290 290 289 289 288 288 288 287 287 287 286 286 286 285 285 285 284 284 284 284 285 285 285 284 284 284 284
316 317 317 318 322 323 320 319 320 320 323 324 323 323 321 318 317 317 317 316 315 316 317 317 318 318 318 318 318 318 318 318 317 315 315 315 315 314 313 311 311 310 306 303 300 298 297 295 293 293 293 292 292 292 292 292 292 291 291 290 289 289 288 288 288 288 287 287 286 286 286 285 285 284 284 283 283 283 284 284 285 284 284 284 284 284
315 316 317 316 319 321 318 318 321 323 323 323 324 322 320 319 317 317 317 316 315 315 315 316 317 317 317 317 317 316 316 316 316 316 314 314 313 313 314 312 309 307 305 303 301 299 297 294 293 293 292 292 292 292 292 292 292 291 290 290 289 289 288 288 288 287 287 286 286 286 285 285 284 284 283 283 283 283 284 284 284 284 284 284 284 284
315 315 316 316 318 318 317 319 323 323 320 321 322 316 314 318 318 317 319 318 316 315 316 316 316 315 316 316 315 316 316 314 314 314 313 314 313 311 312 312 308 306 305 303 300 299 296 294 294 294 293 293 292 292 292 292 291 291 290 289 289 289 288 288 287 287 287 286 286 285 285 284 284 283 283 283 282 283 283 284 284 284 284 284 284 284
317 317 316 317 318 318 319 320 321 321 320 321 321 316 313 319 321 319 320 320 317 316 315 315 315 315 315 315 314 315 313 311 313 314 315 316 313 308 308 309 306 304 303 299 297 297 297 295 295 294 293 293 292 292 292 291 291 291 290 289 289 289 288 288 287 287 287 286 286 285 285 284 284 283 283 282 282 282 283 284 284 284 284 284 284 284
316 316 317 319 318 317 320 321 320 322 321 320 322 318 315 319 320 318 319 320 318 317 315 314 315 315 314 315 315 314 312 313 315 314 315 317 311 306 307 307 302 299 298 297 296 297 297 296 296 295 294 293 292 292 291 291 291 290 289 289 289 288 288 288 287 287 287 287 286 286 285 284 284 283 283 282 282 283 283 283 284 284 284 284 284 286
313 314 315 317 319 318 320 321 321 322 321 321 321 315 312 316 317 316 318 319 319 321 318 315 315 316 315 314 314 314 313 314 316 315 318 319 311 305 306 307 301 296 296 298 298 297 297 296 295 295 294 293 292 291 291 291 291 290 289 289 289 288 288 288 288 288 288 287 287 286 285 285 284 284 283 283 283 283 283 283 284 284 284 284 285 287
311 313 314 316 319 318 318 320 320 319 320 323 319 311 309 314 316 317 320 319 320 323 319 315 316 316 315 315 314 314 314 315 316 317 317 314 306 301 302 305 303 297 296 297 298 297 297 297 295 294 293 293 292 291 291 291 290 290 290 289 288 288 288 289 289 288 288 287 287 287 286 285 285 284 284 284 283 283 283 283 283 284 284 284 285 285
311 313 314 316 318 318 318 320 319 318 321 323 317 308 309 314 315 318 320 320 322 321 313 313 317 315 313 314 313 313 314 312 311 311 309 305 304 302 298 296 296 295 295 296 297 297 297 296 295 294 293 293 292 291 291 291 290 290 290 289 289 289 289 289 289 288 288 288 287 287 286 286 285 285 284 284 284 283 283 283 283 283 283 283 283 282
312 313 313 315 317 316 317 318 318 319 320 317 310 305 308 314 317 319 317 315 320 320 311 310 315 314 311 312 311 310 310 306 303 306 306 303 304 303 297 293 294 294 294 295 296 296 296 295 294 294 293 292 292 291 291 291 290 290 290 289 289 290 289 289 289 289 289 288 288 287 287 286 285 285 284 284 283 283 282 282 282 282 281 281 281 280
312 313 313 314 315 316 317 317 318 320 315 310 307 307 308 315 322 322 315 309 311 316 314 312 313 312 310 309 307 306 306 303 300 302 303 301 300 299 296 295 296 295 293 292 294 295 295 294 293 293 292 292 292 291 291 291 290 290 290 290 290 290 289 289 289 289 289 288 288 287 287 286 285 285 284 284 283 283 282 282 281 281 280 280 280 279
312 312 313 314 314 315 316 316 317 318 312 308 311 312 310 313 318 319 314 309 306 309 313 315 313 308 307 307 304 301 303 303 301 300 301 300 298 297 295 294 293 292 291 291 292 293 294 293 292 291 292 292 292 292 291 291 290 290 289 290 290 289 289 289 289 289 289 288 288 287 286 286 286 285 285 284 283 283 282 281 281 280 280 280 279 279
313 312 313 316 315 313 315 315 314 312 308 306 310 313 311 311 311 308 309 310 308 305 308 314 314 306 302 303 301 299 302 302 299 298 299 299 297 296 295 293 291 290 290 290 291 292 292 292 291 290 290 290 291 291 291 291 291 290 289 290 290 289 289 289 288 289 288 288 288 287 287 286 286 285 285 284 283 283 282 281 281 280 280 280 279 279
311 310 311 315 314 311 313 313 310 306 305 305 304 304 305 307 307 306 307 310 310 307 306 310 312 307 301 300 300 300 300 299 297 296 296 296 294 292 292 291 288 288 289 289 290 291 291 291 290 289 289 288 289 290 291 291 291 291 290 290 289 289 289 288 288 288 288 288 288 287 287 286 285 285 284 284 283 283 283 282 281 281 280 280 279 279
309 308 307 312 314 313 314 314 310 307 306 305 302 299 299 300 300 301 305 307 307 307 306 306 306 303 300 301 304 303 298 295 296 296 293 293 293 292 292 291 288 287 288 289 289 291 291 289 288 287 287 288 288 289 290 290 290 290 290 290 289 289 288 288 288 288 287 287 287 287 286 286 285 285 284 283 283 283 282 282 281 281 280 280 279 278
310 307 308 311 312 312 312 308 304 302 302 301 301 301 300 299 297 297 299 299 299 299 300 299 299 301 301 301 303 303 298 295 297 299 296 292 291 291 292 290 286 286 288 289 289 290 291 290 288 288 288 289 289 289 290 290 290 290 290 290 289 289 288 288 288 288 287 287 287 287 286 286 285 285 284 284 283 282 282 282 281 281 281 281 281 280
308 307 310 311 309 309 309 305 300 302 304 302 301 302 301 299 297 296 295 294 294 296 296 296 296 298 301 301 299 301 302 298 295 298 299 296 293 291 289 287 285 286 288 289 289 290 291 292 292 291 291 291 291 291 291 290 290 291 290 291 290 289 289 288 288 287 287 287 287 286 286 285 285 285 284 284 283 283 283 283 282 282 283 283 283 282
307 309 310 309 307 307 309 307 303 305 310 308 303 302 301 297 295 295 296 296 295 295 296 297 296 294 295 295 295 300 306 300 293 295 298 296 292 290 286 284 285 286 287 288 289 290 291 292 293 293 293 293 292 292 292 291 291 291 291 291 290 290 289 289 288 287 287 287 286 286 286 285 285 285 284 284 284 283 283 282 282 282 282 282 282 282
307 310 308 308 309 309 309 307 304 305 311 310 304 302 300 296 294 297 298 297 295 294 296 300 301 297 295 292 290 295 304 301 293 293 296 293 288 286 285 285 286 286 286 288 289 289 289 291 291 292 292 292 292 292 292 292 291 291 291 290 290 290 290 289 288 288 287 287 287 287 286 286 285 285 284 284 283 283 282 282 281 281 281 281 281 280
Wind_Speed
3 3 2 4 8 9 9 10 7 5 6 5 5 4 4 4 5 5 5 7 2 4 6 8 9 11 11 13 11 5 6 8 9 9 9 9 8 9 11 11 11 10 8 11 17 20 19 18 18 18 17 16 16 16 17 19 20 21 21 21 21 22 22 25 26 25 25 24 23 23 22 22 22 23 23 22 21 20 20 19 20 20 19 20 19 20
4 4 7 10 10 8 7 8 5 4 4 3 3 3 3 4 6 7 5 5 0 4 6 5 7 11 12 13 11 4 6 10 12 12 13 13 12 10 11 13 11 7 5 10 15 18 19 18 19 19 18 18 18 18 19 19 21 21 22 22 22 23 23 24 25 25 25 24 24 24 25 25 24 23 23 23 21 20 20 21 21 21 21 20 21 21
1 3 11 11 4 5 4 5 6 4 3 2 2 2 3 3 4 7 5 3 1 4 5 4 4 9 12 12 11 7 8 11 12 14 15 14 13 12 12 12 10 8 7 9 12 16 19 20 20 20 19 20 20 20 20 20 21 22 22 23 23 24 23 23 23 23 24 24 24 26 28 27 26 24 24 24 23 22 22 23 23 22 22 22 23 23
3 6 11 7 7 6 3 4 6 3 1 3 3 2 4 3 2 4 5 3 1 2 2 4 4 7 9 9 11 12 11 10 10 12 14 12 13 14 12 11 11 12 12 10 10 13 17 20 21 21 21 20 21 21 21 21 23 23 23 24 25 24 23 23 24 24 24 26 26 27 28 28 28 27 26 26 25 24 24 25 25 24 24 24 25 25
6 6 4 6 8 8 5 4 7 5 3 5 6 6 5 5 6 6 4 4 3 3 3 3 6 6 8 10 12 8 4 8 9 10 12 12 12 11 9 10 12 13 12 12 11 12 16 20 21 22 22 21 22 23 23 24 24 25 25 25 26 25 24 25 25 25 27 28 29 30 30 28 29 29 28 28 28 26 27 27 26 27 27 26 27 27
8 4 4 7 6 7 6 4 6 7 4 5 6 10 10 9 8 7 3 5 4 5 3 3 4 6 5 8 11 5 2 8 8 8 14 13 10 10 10 11 11 10 10 11 12 13 17 20 21 22 23 23 24 24 25 26 25 25 26 27 27 26 25 25 26 27 29 31 33 33 32 30 31 29 26 28 30 29 29 29 29 30 29 29 29 29
4 4 5 7 6 7 6 5 6 8 5 4 5 10 11 9 7 6 3 1 1 5 3 2 2 7 6 7 9 5 5 10 8 8 13 12 9 10 12 11 8 8 8 9 11 13 16 20 22 23 24 25 25 26 26 26 25 26 27 27 27 27 27 26 27 29 31 32 33 33 33 33 34 31 27 28 31 31 32 32 33 32 32 31 30 29
3 5 4 6 6 6 6 5 6 9 8 4 5 6 9 9 8 7 6 4 4 3 4 3 2 5 8 7 6 5 8 10 10 11 13 13 12 11 11 9 8 10 10 11 11 13 16 21 24 25 26 26 26 27 27 26 26 26 27 27 27 26 27 28 29 31 32 32 31 31 32 32 33 34 32 31 32 33 34 34 34 33 32 31 30 29
4 7 8 8 5 5 6 5 7 11 6 5 3 5 6 6 5 4 5 4 1 2 5 4 1 4 8 5 3 0 6 8 11 13 15 15 12 10 10 9 9 10 11 12 13 14 17 22 25 26 26 26 26 27 28 28 27 27 26 26 26 26 28 29 31 32 31 31 31 30 31 31 31 34 36 35 34 35 35 35 34 33 32 31 29 27
2 6 8 8 6 6 5 3 8 12 6 4 5 7 5 5 5 5 4 3 2 2 6 5 3 3 8 4 2 2 3 8 10 12 14 13 9 8 9 10 9 8 9 10 11 13 18 22 25 25 25 25 26 27 28 28 27 28 27 27 26 27 28 30 32 32 31 30 31 30 31 32 34 36 38 37 36 35 35 35 34 33 32 30 28 27
1 1 2 4 4 5 4 2 3 8 6 5 7 6 7 6 5 4 2 4 1 5 7 8 9 6 7 3 4 3 4 7 9 8 10 9 6 6 8 8 9 8 8 8 8 11 17 21 23 24 25 25 26 27 27 27 28 28 28 28 28 27 29 31 32 31 30 30 30 30 31 34 38 40 40 39 38 37 37 36 35 33 31 30 28 27
3 1 1 2 2 4 7 5 3 2 5 5 4 5 4 4 4 4 4 4 1 6 5 6 7 8 9 6 3 6 6 5 7 8 10 9 7 6 6 6 8 7 8 8 8 10 13 17 20 23 24 25 26 27 28 28 29 29 29 29 29 29 30 32 32 31 30 30 30 31 33 36 40 43 43 43 41 39 39 38 36 34 32 31 29 28
2 5 3 2 1 4 6 4 4 4 2 4 4 6 3 2 3 2 3 0 4 7 3 1 1 4 10 8 6 8 9 9 9 9 10 9 7 7 6 6 6 6 7 8 8 9 10 14 19 22 24 25 27 28 29 30 31 31 31 31 31 31 32 33 33 32 31 31 31 33 35 38 42 44 44 43 43 41 40 39 38 36 34 32 30 28
3 5 1 1 2 3 8 7 3 1 4 6 6 6 5 2 1 3 3 2 4 6 4 2 1 4 6 4 9 13 13 11 8 9 10 8 8 8 6 6 6 6 8 8 9 9 10 14 20 23 25 26 27 29 30 31 32 32 32 32 32 33 33 34 33 32 32 32 33 35 37 40 44 45 44 43 43 42 40 39 38 36 35 33 31 29
5 6 4 8 4 6 11 9 6 6 5 6 5 6 6 6 5 4 4 4 5 4 4 2 2 4 2 3 8 9 8 7 7 8 7 7 8 7 5 5 6 7 7 7 8 10 11 17 22 24 25 26 28 29 30 31 32 33 33 33 34 34 34 34 33 33 33 33 34 37 39 42 44 45 44 43 42 41 40 38 37 35 34 33 32 30
5 7 6 4 1 9 12 6 5 7 3 3 3 4 4 6 5 2 2 5 2 2 3 2 4 4 3 6 8 6 6 7 8 8 7 10 9 4 4 5 6 7 7 8 9 9 12 18 23 24 25 26 27 29 30 31 33 33 34 34 35 35 35 35 34 34 34 35 36 38 41 43 44 44 44 43 41 40 39 37 36 35 34 33 32 31
3 5 5 1 2 4 7 3 4 4 3 2 3 4 4 4 5 2 3 1 3 3 4 2 6 5 3 7 8 6 8 8 8 8 8 11 8 3 6 6 6 7 7 8 9 9 12 17 21 24 25 26 28 29 30 31 33 34 35 35 35 35 36 35 35 35 35 36 38 39 42 43 44 45 44 43 42 40 38 37 35 35 34 33 32 31
4 4 4 1 2 3 1 3 3 3 3 5 4 6 3 2 2 2 2 3 3 4 5 2 7 6 2 6 4 2 8 11 9 9 10 10 6 6 9 6 6 7 8 8 8 9 11 17 21 23 25 27 29 31 31 32 33 34 35 36 37 37 37 36 36 36 36 37 39 41 42 43 44 44 43 43 42 40 39 37 36 36 35 34 33 31
4 3 5 1 3 3 3 4 2 5 3 5 4 5 4 2 1 2 2 2 1 3 5 3 5 5 5 6 2 3 10 12 12 11 10 9 8 10 9 5 6 7 7 7 8 8 10 15 21 24 26 27 29 30 31 32 32 33 34 36 37 38 38 37 37 37 37 38 40 42 43 43 44 44 43 42 41 40 40 39 38 37 36 35 33 32
3 3 4 1 1 1 3 2 5 1 2 3 2 3 2 2 4 4 3 3 3 3 4 3 4 5 6 6 6 10 12 11 12 10 9 11 12 11 6 5 7 7 8 8 8 8 9 15 21 24 27 28 29 30 31 32 33 33 34 35 36 37 37 37 37 38 38 39 41 43 43 42 43 43 43 42 42 40 40 39 39 38 37 36 34 33
2 4 4 2 2 1 2 4 7 8 6 3 4 5 3 1 2 1 1 2 4 3 2 3 6 8 5 4 8 11 10 10 10 8 9 11 11 7 3 6 7 8 8 8 9 8 9 15 20 23 26 27 28 30 32 34 34 33 35 36 36 37 37 38 38 39 39 40 42 43 43 42 42 43 43 42 41 41 40 40 39 38 37 36 35 34
4 4 4 2 1 3 5 4 5 8 8 7 7 8 8 6 4 2 3 2 3 2 4 3 7 10 5 4 6 7 6 7 8 9 9 10 8 5 3 7 7 8 8 8 9 8 9 14 19 22 25 26 28 30 32 33 34 34 36 37 37 38 39 39 39 39 40 41 42 42 43 43 43 43 43 42 42 41 41 40 39 38 37 36 35 34
4 3 3 3 4 6 6 4 3 5 3 3 4 5 7 6 6 6 6 4 3 3 3 4 4 10 4 3 4 4 3 4 5 7 7 8 7 5 5 6 6 7 7 7 8 8 10 16 20 22 25 27 28 30 32 33 34 36 37 38 38 39 39 40 40 40 41 42 42 43 43 43 43 43 43 43 42 41 41 40 39 38 37 36 35 33
3 3 4 2 2 2 4 4 2 1 2 1 2 3 6 8 8 6 5 4 4 5 5 3 5 9 4 0 3 4 3 3 4 5 7 8 6 4 5 5 6 6 7 7 7 7 10 15 18 20 23 25 27 29 31 32 33 34 36 37 38 39 39 40 40 41 41 42 42 42 43 43 43 43 43 43 43 42 41 40 39 38 37 36 35 33
4 4 4 3 1 3 4 3 2 2 2 3 4 5 7 10 9 3 0 2 3 9 10 6 9 9 3 3 3 3 4 4 5 5 6 6 6 5 5 4 5 6 6 7 8 8 10 13 16 20 23 25 27 29 30 32 32 33 35 37 38 39 39 40 41 41 41 42 42 42 43 43 44 44 44 44 43 42 41 40 39 39 37 36 34 32
5 4 6 7 7 8 6 5 5 4 3 2 4 7 9 12 13 7 3 4 7 9 9 9 13 9 2 3 4 3 5 5 6 5 5 7 6 5 4 5 6 6 8 9 9 9 11 12 14 19 23 25 28 29 30 32 32 33 34 36 38 39 39 40 40 41 41 42 42 43 43 44 44 45 45 45 44 42 41 40 39 39 37 36 34 33
3 4 9 12 12 13 10 5 4 8 7 7 10 12 12 13 14 11 6 8 8 3 6 14 17 13 9 5 4 5 5 5 6 5 6 7 6 5 5 5 6 7 8 9 9 10 11 11 14 18 23 25 28 30 31 33 33 33 33 34 36 37 39 40 40 40 40 41 42 43 44 44 45 45 45 45 44 43 42 41 40 39 37 35 34 33
4 4 11 15 16 16 11 5 7 11 11 13 14 13 14 14 13 13 13 13 7 4 10 17 11 13 21 13 8 8 5 4 8 9 8 8 6 5 5 5 6 7 7 8 10 11 12 13 12 16 21 25 26 29 31 32 33 33 33 34 34 36 38 40 39 40 40 40 41 42 43 44 44 44 44 44 44 42 42 41 40 38 36 35 34 33
4 6 9 12 14 18 12 5 7 9 9 11 14 15 17 16 16 18 20 17 10 9 18 16 9 13 24 15 8 8 7 8 13 11 7 6 6 5 5 5 7 8 8 10 12 12 13 13 11 14 20 23 25 28 30 31 32 33 33 33 34 36 38 39 39 39 39 39 40 40 40 40 41 42 42 42 42 42 42 41 40 38 37 35 34 32
3 5 6 9 11 17 14 6 7 9 6 6 11 14 16 18 21 23 23 20 15 14 21 15 6 14 20 12 7 8 8 10 9 4 2 6 7 6 7 7 8 9 10 12 13 12 12 12 11 14 19 22 25 28 29 31 33 34 34 34 35 37 39 40 40 39 39 39 39 38 36 37 38 39 40 41 42 42 42 41 40 39 38 36 34 33
3 3 3 6 6 14 12 6 7 9 7 7 8 10 15 18 21 20 18 17 14 14 19 17 13 17 14 4 5 7 7 5 6 5 6 8 8 7 8 8 9 9 11 12 11 11 11 11 11 13 18 23 26 27 29 30 32 33 33 34 36 38 39 40 40 39 39 39 37 35 35 35 36 38 39 41 41 41 41 41 40 39 38 36 35 34
3 2 1 4 6 12 9 8 8 7 5 6 9 13 18 16 14 14 13 13 14 16 18 15 14 18 11 2 4 6 5 6 9 10 11 9 8 8 9 10 10 10 11 12 11 12 12 13 13 14 19 24 27 29 30 29 28 29 31 33 35 36 36 38 39 39 39 38 36 35 36 37 37 38 39 40 40 40 40 40 40 39 38 37 36 34
5 4 1 4 7 10 6 9 9 5 3 7 12 18 20 14 9 10 12 14 16 15 13 13 15 19 14 6 7 7 5 9 12 11 11 10 8 8 10 11 11 11 12 11 11 13 13 13 16 20 24 27 29 31 31 29 28 29 30 31 32 33 35 37 37 37 36 36 35 35 36 37 37 37 38 39 39 39 39 40 40 39 38 37 36 34
5 6 4 4 4 5 4 7 6 5 7 9 8 10 15 16 15 15 15 17 16 14 13 14 15 17 15 11 12 12 11 12 11 10 10 8 7 8 10 11 11 11 10 10 11 12 12 13 17 21 24 26 27 28 28 29 29 29 29 29 30 31 33 34 34 35 35 35 35 35 36 36 37 37 37 37 37 38 39 40 40 39 38 37 36 35
5 6 4 3 2 2 4 6 4 7 9 6 2 1 7 15 19 20 18 18 17 16 16 18 19 20 19 15 13 14 14 11 8 9 8 6 7 8 10 12 12 11 9 9 10 10 9 11 15 19 22 24 26 27 28 29 29 28 28 28 29 30 32 32 33 32 33 33 34 34 35 35 36 36 36 36 37 39 40 40 40 40 39 38 37 36
9 6 3 3 3 2 3 5 6 4 3 5 4 2 1 4 9 12 14 17 18 18 18 20 22 23 20 17 15 13 10 7 6 7 7 7 9 9 10 10 9 9 9 9 9 10 12 16 20 22 24 26 27 29 30 31 31 30 29 30 30 31 31 31 31 30 30 32 33 33 35 35 36 36 36 37 38 39 40 41 41 41 40 39 38 36
10 8 4 3 4 4 3 6 4 4 6 8 7 4 4 6 9 11 9 13 16 18 18 18 20 21 18 18 18 9 1 4 8 9 8 9 9 9 9 8 7 8 9 9 11 13 16 20 22 23 25 26 28 31 32 32 31 31 30 30 31 31 32 32 31 31 31 33 34 35 35 36 36 36 36 37 38 39 41 42 42 42 41 40 39 38
8 8 7 6 5 4 5 5 3 3 8 11 7 5 7 8 10 12 8 9 11 13 15 16 17 19 19 18 14 2 6 2 11 11 6 8 8 6 7 6 6 7 9 11 12 12 13 17 19 21 24 27 29 30 31 31 31 31 30 30 31 32 32 32 33 34 35 36 36 36 35 35 36 36 37 38 40 41 42 43 43 43 43 42 41 40
6 5 6 7 5 5 6 6 5 6 8 8 5 5 6 7 8 9 4 8 8 8 13 15 17 19 19 15 7 5 4 5 11 9 5 7 7 6 7 5 2 4 9 12 13 13 15 17 19 20 23 26 28 29 30 32 32 31 29 30 31 31 31 33 36 37 38 37 35 35 36 36 37 38 39 40 42 43 43 43 43 43 43 43 42 43
6 3 5 8 7 7 8 7 5 5 6 6 5 4 4 6 10 10 3 8 6 7 10 14 17 18 13 7 5 6 7 9 9 7 4 6 5 4 5 5 4 5 8 11 12 14 16 19 21 23 25 27 28 29 30 32 32 30 29 29 29 30 33 37 38 37 35 34 33 35 36 38 39 40 41 42 42 42 42 42 42 42 43 44 44 44
3 3 5 8 9 9 11 8 4 3 5 5 6 6 6 6 7 7 8 7 6 7 6 10 14 12 7 7 6 7 8 7 4 4 1 5 6 4 4 5 6 7 9 11 12 14 17 20 21 23 24 25 26 28 31 32 32 30 29 28 29 33 36 35 32 31 31 32 33 35 37 39 40 41 41 41 41 40 41 41 41 42 43 44 43 42
3 3 4 6 8 8 8 7 5 5 5 5 6 4 5 5 4 7 6 2 5 8 6 7 9 8 6 8 8 7 5 3 2 1 3 5 5 4 4 5 7 7 8 10 11 14 17 17 16 17 19 21 25 29 31 32 31 28 27 28 31 34 31 27 27 29 31 32 34 35 37 38 39 39 39 39 39 39 40 40 40 40 40 40 40 39
6 4 3 5 6 4 5 6 6 6 4 10 12 3 2 4 6 5 2 1 3 6 6 6 7 6 6 7 6 5 3 1 3 3 4 5 5 5 4 4 6 7 7 8 9 12 15 14 13 15 17 19 24 27 30 31 29 26 26 28 30 27 24 25 28 29 31 32 33 35 35 36 37 37 38 38 38 38 38 38 38 37 37 37 37 37
5 5 3 4 5 4 5 7 6 3 6 13 13 7 8 7 4 4 5 4 3 3 5 5 5 5 7 7 6 5 3 2 3 4 4 4 4 4 4 4 5 6 7 7 8 11 14 14 13 14 15 18 22 24 27 29 26 24 25 27 25 23 23 25 26 27 29 31 32 33 33 34 35 35 36 37 37 37 36 36 36 36 35 36 36 36
6 6 4 4 6 6 5 6 3 2 6 10 7 4 7 6 3 3 5 4 3 4 4 4 5 5 6 7 8 5 3 4 4 4 4 4 4 4 4 5 6 7 8 10 11 12 14 15 16 16 15 16 20 22 24 26 25 24 25 24 22 23 24 24 24 26 28 30 30 31 31 32 32 33 34 35 36 36 36 36 35 35 35 36 36 36
3 3 2 2 3 4 3 4 3 1 4 8 4 1 3 4 3 4 4 3 4 5 4 4 6 7 7 7 7 5 4 5 5 4 4 5 5 4 5 6 7 9 11 12 13 14 15 17 17 17 16 16 18 21 23 24 25 24 23 22 21 22 22 23 24 25 26 28 29 29 29 30 30 31 32 33 34 35 36 36 37 37 37 37 37 37
2 2 2 1 4 5 4 5 5 3 5 7 4 1 2 2 1 3 3 3 4 5 4 4 6 7 7 7 7 6 6 6 7 5 5 5 6 5 5 6 7 9 11 14 15 17 19 19 18 17 18 17 18 20 21 22 23 21 19 19 19 19 20 22 23 24 25 26 26 27 28 29 29 30 31 32 33 34 35 36 37 37 37 37 37 37
2 4 3 3 4 5 4 4 3 2 4 4 3 2 3 2 1 2 2 2 2 4 4 3 5 7 7 6 6 7 7 6 6 7 6 5 5 6 5 6 8 10 11 13 15 17 19 19 18 18 18 18 19 19 19 20 20 18 16 15 15 16 18 19 21 21 22 23 24 25 26 28 28 30 31 32 33 34 35 36 37 38 39 40 40 40
3 4 4 5 4 2 5 4 1 3 4 4 5 5 5 4 3 2 2 3 5 5 5 4 3 4 6 7 7 8 8 6 6 6 6 6 5 5 5 7 9 11 12 13 14 14 15 16 17 18 17 17 18 17 17 17 17 16 13 12 12 14 16 17 18 19 19 21 22 24 25 26 27 29 30 31 33 34 36 36 37 38 40 41 41 41
4 5 4 4 4 4 7 6 6 3 3 6 8 9 7 5 5 4 3 5 5 5 7 7 4 2 3 5 6 8 9 7 6 5 6 5 5 6 7 9 10 10 11 12 12 11 12 13 14 15 15 16 16 16 15 16 15 14 13 12 12 13 14 16 17 18 19 20 21 23 24 25 27 28 29 30 32 33 34 35 35 37 38 38 39 39
6 7 7 6 6 7 8 7 8 6 5 5 7 10 8 6 7 6 6 7 6 5 7 8 7 4 2 3 4 6 8 7 6 6 5 4 6 8 10 12 12 11 11 13 12 11 10 11 12 14 15 16 16 16 15 15 15 15 15 14 13 13 14 15 17 19 20 21 21 22 23 24 26 27 28 29 30 31 32 32 33 35 37 37 37 37
Wind_Direction
95 116 158 198 217 212 200 197 195 167 136 129 131 145 199 214 262 252 248 284 217 163 242 223 226 247 251 261 258 208 183 220 238 243 243 234 227 225 222 223 219 219 216 194 193 195 197 200 194 190 193 195 191 186 187 185 182 180 176 173 170 171 174 170 160 156 159 155 148 146 145 142 138 140 144 144 147 146 147 148 149 149 147 148 148 147
84 139 216 224 219 205 192 194 176 129 124 105 128 186 252 216 249 257 239 291 277 173 260 241 227 253 250 255 263 195 174 224 226 226 237 232 228 228 223 225 218 208 184 181 193 196 195 195 191 191 190 190 187 183 186 186 183 180 177 178 174 169 168 165 159 156 157 159 158 153 147 145 139 138 141 140 142 144 145 146 145 145 144 146 145 145
102 212 235 230 182 111 121 167 167 163 165 142 127 176 261 244 269 279 269 304 152 180 264 271 240 258 257 256 260 232 210 231 225 219 230 228 226 227 222 224 212 195 186 186 193 192 192 191 189 191 189 190 191 184 185 186 184 180 176 178 177 170 166 165 162 160 158 156 156 150 145 145 142 140 141 141 141 143 144 143 143 143 144 145 144 143
186 244 241 208 123 121 125 124 136 139 195 195 172 177 243 245 254 277 288 324 254 209 273 291 285 271 267 266 258 243 228 241 240 227 235 232 227 230 223 218 208 200 196 189 189 187 189 189 188 191 189 188 189 184 182 183 183 181 178 176 174 171 170 169 167 164 160 154 152 148 144 144 142 140 141 140 139 142 143 141 142 142 143 144 143 142
213 250 228 144 147 169 157 118 137 153 236 236 205 200 222 226 215 232 283 333 331 333 360 333 305 273 254 254 254 257 240 249 249 236 245 242 234 238 233 221 212 204 195 187 187 184 184 188 189 190 189 187 186 184 183 182 182 182 180 177 175 175 175 173 173 170 163 157 152 144 137 135 134 134 138 138 137 140 140 140 141 141 142 142 140 138
244 245 110 123 164 173 156 162 171 172 208 269 229 207 216 219 222 240 306 2 351 320 337 13 302 273 260 252 255 283 306 255 245 232 244 246 235 233 233 227 213 201 195 187 185 184 184 187 186 188 190 188 187 187 185 184 184 184 183 180 179 179 177 176 175 171 166 160 155 149 142 137 134 132 136 138 138 140 140 139 138 138 138 137 135 134
243 214 123 127 155 164 171 208 212 177 167 267 243 206 212 211 218 235 210 110 244 260 291 65 222 271 286 262 252 236 233 253 252 245 251 251 239 227 229 227 207 192 187 182 185 184 185 185 183 187 192 190 188 188 186 184 186 186 184 183 183 181 179 177 173 169 164 158 154 154 152 149 145 141 140 141 141 141 139 137 136 135 135 134 133 131
175 179 148 129 129 150 179 219 218 171 150 239 249 182 190 197 210 218 185 192 233 262 315 23 125 272 278 264 258 201 207 253 265 260 260 251 239 231 231 225 202 194 185 180 187 187 187 188 185 187 190 190 187 186 187 185 185 186 184 183 184 182 180 178 173 167 164 161 157 155 152 150 150 148 145 144 142 141 140 137 136 135 134 133 131 129
142 176 186 164 145 171 198 212 182 155 161 244 219 138 154 170 183 167 146 192 296 11 297 302 96 272 269 258 321 61 203 246 261 255 255 251 242 230 228 224 205 197 190 186 188 188 189 189 187 187 187 188 186 186 187 187 185 185 184 184 184 182 179 175 171 167 164 164 163 160 156 151 149 147 147 146 143 142 141 138 137 136 134 133 131 130
127 194 190 161 166 200 206 214 169 161 188 216 127 97 76 73 82 83 111 138 42 338 245 235 161 254 272 230 126 41 205 232 245 248 253 255 247 225 220 220 207 195 191 191 189 186 188 188 187 186 184 185 186 186 187 187 186 185 185 186 184 183 180 173 171 169 168 168 166 165 164 158 151 148 147 146 144 143 143 140 138 137 136 135 133 131
314 257 177 155 178 187 145 86 165 165 162 137 104 68 49 35 41 50 53 86 40 271 233 212 190 203 270 259 166 196 205 210 224 246 262 266 265 240 225 215 202 193 188 186 183 180 183 185 184 183 182 183 184 185 185 186 187 186 185 185 183 184 183 178 174 174 174 174 172 171 170 164 157 153 150 149 147 146 145 143 141 140 139 137 136 134
327 317 241 214 166 124 100 71 23 87 123 113 91 82 69 349 8 22 356 49 232 258 237 221 195 187 240 260 217 238 251 227 216 234 257 267 275 257 234 217 201 192 180 174 174 174 173 177 181 182 181 181 181 182 183 184 185 185 184 184 182 182 184 182 178 179 179 177 176 175 172 168 163 159 156 153 151 150 149 146 145 144 142 141 139 138
273 234 254 309 191 138 115 89 28 27 90 107 101 112 118 321 352 340 306 108 230 261 282 311 137 204 244 247 233 251 262 247 224 226 245 258 266 254 232 218 201 182 177 175 175 175 172 175 180 181 180 180 181 182 183 183 183 183 182 183 183 182 183 183 181 181 182 180 179 176 172 169 166 162 160 157 155 154 153 151 150 148 147 145 144 143
269 290 292 159 258 186 154 160 173 180 179 167 149 147 156 160 196 255 269 279 264 272 304 9 143 246 277 261 230 233 241 242 230 229 242 249 253 252 236 209 190 181 181 179 178 178 180 182 181 182 180 179 182 183 183 183 182 182 181 182 183 182 182 183 183 183 183 181 180 177 173 170 167 164 162 160 159 158 157 156 153 152 150 148 147 146
215 283 209 179 210 187 182 191 171 139 162 187 164 147 168 167 172 210 216 231 259 284 301 297 196 212 223 272 252 240 256 272 256 245 251 256 250 250 243 197 179 188 185 180 183 184 186 185 182 182 181 181 182 183 183 183 183 182 182 183 183 182 182 183 184 184 183 182 179 177 175 171 168 166 165 163 162 161 160 158 156 154 152 150 149 148
192 264 241 207 177 167 183 201 125 108 141 221 131 124 196 188 168 198 204 183 188 307 293 229 222 221 206 267 271 260 284 284 260 262 270 264 256 238 230 203 184 193 186 183 188 187 188 185 184 184 182 182 182 183 184 183 183 182 181 183 184 184 184 184 185 184 184 183 180 178 175 172 170 168 167 166 165 164 162 160 158 156 155 154 152 151
170 274 280 345 15 173 186 184 125 137 186 168 141 183 214 174 147 184 268 62 82 266 269 201 242 283 315 279 267 241 257 263 264 275 262 259 269 259 238 217 191 195 187 191 194 187 186 184 186 187 183 182 182 183 185 184 184 184 182 182 183 183 183 185 186 185 184 184 181 179 176 173 172 171 170 169 167 166 164 162 161 159 158 157 155 154
168 259 286 124 191 260 244 120 76 19 125 129 179 202 166 73 84 123 246 349 44 253 270 218 246 278 284 273 311 127 229 249 260 259 251 262 279 263 248 215 187 198 189 194 193 183 186 185 185 187 185 185 185 185 186 186 186 186 185 184 183 182 183 184 186 186 186 185 183 180 178 176 175 174 173 172 170 168 166 165 164 163 162 160 159 157
156 230 293 99 187 291 6 114 84 356 61 128 181 182 132 140 218 121 171 226 180 249 282 284 270 267 209 226 278 180 210 231 242 241 249 263 256 247 245 201 184 197 188 191 190 183 187 187 186 186 186 187 186 186 186 185 186 186 187 186 185 185 185 185 186 187 187 187 185 182 180 179 178 176 176 174 172 171 169 168 168 166 165 163 162 160
129 200 270 326 218 321 26 159 188 227 39 62 108 157 130 151 179 166 163 175 169 220 278 311 308 269 214 199 203 210 212 214 224 233 241 247 246 247 234 186 188 196 192 193 190 190 188 186 189 187 186 187 186 186 186 185 186 187 186 186 186 187 186 186 188 187 187 187 186 184 182 181 180 179 178 177 175 174 173 172 171 170 168 167 166 164
129 207 239 313 335 156 187 209 190 179 167 149 158 175 190 118 114 164 180 138 137 163 213 270 285 268 237 184 193 207 215 211 210 217 230 239 250 264 220 184 197 198 198 197 186 188 187 184 188 188 188 188 186 185 186 187 188 187 187 188 188 188 187 187 188 188 189 188 187 185 184 184 183 181 181 179 178 177 176 176 175 173 172 170 169 168
176 193 184 180 220 200 225 242 202 191 186 181 189 192 187 171 141 171 235 200 138 171 184 188 268 269 240 180 198 201 206 219 209 203 227 246 257 275 228 196 203 198 197 197 187 184 182 181 185 186 187 187 186 186 187 187 188 188 189 189 190 190 190 189 189 189 190 189 188 188 187 186 185 184 183 182 181 180 179 179 178 176 176 174 172 171
148 124 160 195 212 214 240 268 215 205 188 163 200 198 178 177 171 179 215 211 161 215 185 128 264 273 253 167 215 225 203 226 224 205 227 255 258 255 231 205 203 200 194 189 185 182 180 182 183 185 187 188 188 188 188 188 190 190 190 190 190 191 192 191 191 191 191 191 191 190 189 188 187 186 185 184 183 183 183 182 181 180 180 177 175 174
121 134 190 229 311 311 307 325 344 152 137 160 231 184 168 195 197 183 198 183 164 211 194 143 249 264 293 14 244 269 263 252 254 225 229 261 270 248 227 207 195 196 189 182 181 178 178 181 183 185 189 190 190 191 190 191 192 192 191 191 191 193 193 193 193 192 192 192 192 192 191 190 189 188 187 186 186 186 186 185 183 183 183 180 177 176
177 177 179 185 281 333 336 320 290 247 186 200 218 192 188 198 190 172 143 141 202 217 189 184 240 242 290 325 258 291 323 293 265 245 228 250 263 247 223 202 191 188 184 182 180 176 178 182 187 190 191 192 192 192 193 193 194 194 193 192 192 193 193 194 194 194 193 193 192 192 192 191 191 190 189 188 188 188 188 187 186 186 185 183 179 177
176 178 173 186 210 221 220 218 220 197 167 194 209 195 197 194 187 194 201 189 231 223 176 197 238 239 314 324 261 296 327 296 276 275 252 245 252 250 220 195 191 185 186 190 184 184 187 188 193 195 194 194 193 193 194 195 195 196 195 194 194 194 193 194 195 194 194 193 192 193 193 193 192 191 190 190 190 190 190 189 189 188 187 185 182 180
152 185 192 199 213 220 219 216 158 131 144 202 208 193 198 200 193 196 208 213 220 192 185 221 235 251 265 237 219 265 273 266 280 284 264 253 254 248 222 201 196 192 191 192 187 190 195 195 197 197 196 196 195 194 195 195 196 197 196 195 194 193 193 194 195 194 193 193 193 194 194 194 193 192 191 192 192 192 191 191 191 190 189 188 185 182
125 199 205 205 220 230 227 201 156 151 168 199 201 194 202 202 192 197 214 217 182 134 239 235 214 243 257 237 210 242 244 253 268 259 254 258 251 234 211 189 195 199 193 193 196 198 198 199 200 198 198 198 196 196 196 196 198 198 197 196 193 192 192 193 193 194 194 194 194 195 196 195 194 193 193 193 193 193 193 193 193 192 190 190 189 186
151 211 210 204 224 238 232 179 165 180 181 193 197 197 201 198 194 204 216 215 179 186 242 240 170 218 253 250 223 226 213 227 250 251 248 251 238 212 186 187 201 200 197 202 205 204 201 202 200 196 198 199 196 196 196 196 197 198 197 196 193 192 192 192 193 193 193 195 196 198 197 196 195 194 193 194 194 194 194 194 194 193 193 192 191 189
184 212 202 189 217 241 238 188 169 191 188 200 206 203 202 201 201 208 216 217 206 217 244 253 225 241 259 262 236 214 200 226 256 270 216 224 224 206 192 205 214 206 206 211 208 205 204 203 200 195 196 198 199 198 196 195 196 196 196 194 193 192 192 192 192 192 194 196 198 199 198 197 195 195 194 195 196 196 196 195 195 195 195 194 193 192
200 197 163 149 203 246 241 190 177 191 189 210 221 215 216 212 208 212 217 218 216 231 248 258 266 264 261 251 245 233 204 232 277 271 238 231 223 210 206 218 224 217 217 218 210 204 203 201 198 195 196 200 201 200 199 199 197 196 194 193 193 193 192 191 192 193 195 197 197 198 198 197 197 196 196 196 197 197 197 196 196 196 196 196 195 195
178 193 74 123 205 244 227 179 191 192 181 226 239 228 222 215 209 212 215 215 210 220 238 246 254 258 249 183 264 253 193 215 245 243 245 244 221 207 215 224 226 225 223 217 207 201 200 199 197 195 197 200 200 201 202 201 197 195 195 194 194 193 191 191 192 193 195 196 196 198 198 198 198 198 198 198 198 198 197 197 197 197 198 197 197 197
164 173 160 157 207 245 220 171 179 169 170 239 240 231 223 210 197 208 216 221 214 209 222 229 234 248 252 244 260 258 212 221 235 234 239 243 227 213 220 228 230 231 226 217 207 202 201 201 199 198 199 198 199 201 200 197 195 196 197 195 194 192 191 192 193 193 194 195 196 198 198 198 198 198 199 199 198 198 198 198 199 199 200 200 199 199
168 176 191 181 198 238 198 143 145 181 213 232 237 229 217 201 197 210 217 221 215 209 221 233 240 251 257 250 248 250 241 236 238 239 238 236 226 222 227 233 236 235 228 218 210 206 204 202 200 201 201 199 199 200 198 196 196 197 197 195 193 192 192 192 193 194 195 195 196 198 198 197 197 198 199 199 199 199 199 200 201 201 202 202 201 200
175 184 190 179 176 205 152 129 164 211 221 240 310 324 212 202 201 210 222 225 219 215 226 240 247 250 251 249 246 249 253 254 253 255 251 234 221 220 227 234 234 231 227 217 211 209 204 198 195 195 198 198 197 195 194 194 193 192 192 192 191 192 193 193 194 195 196 195 196 197 198 197 197 197 199 200 200 200 200 201 202 203 203 204 204 203
179 192 188 173 181 165 138 174 209 233 281 287 292 299 192 170 182 202 229 237 227 221 224 233 241 247 251 253 251 249 258 284 292 266 237 223 221 215 221 233 231 225 224 213 204 202 197 196 195 193 194 193 191 190 191 191 189 186 187 189 190 192 193 194 195 196 196 196 197 198 199 198 198 198 199 200 201 202 202 202 203 204 205 206 206 205
181 186 191 200 199 184 186 212 234 335 311 269 253 217 168 147 160 178 216 243 232 221 219 225 237 246 249 251 254 253 354 350 304 272 226 214 223 217 216 225 216 213 218 208 203 205 202 201 200 195 191 187 187 189 190 188 186 183 183 185 188 191 192 194 196 197 198 200 200 200 200 200 199 199 199 201 202 203 204 204 205 206 206 207 206 205
196 190 191 203 203 190 207 231 238 265 257 249 234 193 177 174 172 170 191 249 242 215 206 212 228 238 242 246 250 230 76 333 280 272 236 208 212 200 197 213 211 205 202 191 190 196 196 197 197 193 188 184 186 190 188 184 183 181 181 184 187 190 192 194 197 199 200 202 202 201 201 201 201 201 201 202 205 206 206 207 207 208 208 208 208 210
214 202 193 202 205 190 203 226 221 219 244 251 225 177 163 159 143 132 168 260 248 193 186 196 216 231 237 239 224 124 113 248 261 266 239 199 198 187 178 182 173 177 182 179 180 182 181 184 185 184 184 183 185 188 186 183 182 180 181 186 188 189 193 197 200 202 202 203 202 202 204 204 205 205 205 206 208 208 208 208 208 210 211 211 212 215
204 194 191 204 211 204 208 224 229 229 247 242 203 173 166 149 124 118 193 255 229 180 177 187 210 229 228 206 159 147 187 225 246 262 236 177 166 157 160 166 159 158 163 167 174 177 173 172 174 175 181 185 185 184 183 181 180 181 185 187 187 191 199 203 205 204 203 202 203 204 206 207 208 209 209 210 210 210 210 211 211 212 212 213 214 217
194 187 195 208 212 212 215 226 240 250 246 219 184 173 165 134 121 162 217 234 190 181 187 188 208 225 203 157 163 192 213 229 251 271 206 125 124 113 119 142 145 144 147 154 163 168 167 170 175 177 182 185 183 181 181 180 180 184 187 186 190 200 206 207 204 202 202 204 205 207 209 210 211 211 212 213 213 212 212 213 213 213 214 214 215 216
183 182 195 207 210 213 220 226 240 253 234 160 139 157 161 144 177 210 222 217 163 178 189 194 207 215 187 176 192 210 230 288 337 103 102 105 121 125 118 122 118 113 126 143 154 162 163 166 171 173 176 180 180 181 182 180 181 185 186 190 200 206 207 205 203 204 205 206 208 209 210 211 212 212 213 213 213 213 214 214 215 216 216 216 217 217
181 174 193 203 199 200 212 214 224 248 208 136 121 109 240 203 206 206 174 105 190 178 172 192 208 203 182 182 192 199 202 79 66 92 91 86 97 107 108 113 112 108 115 128 145 159 160 156 159 164 168 174 179 182 183 183 183 185 189 198 206 207 205 206 207 207 207 207 209 210 211 212 213 213 213 215 215 216 216 217 217 219 219 219 220 220
181 174 192 208 197 185 202 216 214 198 169 153 145 171 215 205 188 168 153 163 211 191 169 188 209 201 178 165 159 168 178 153 128 119 107 100 106 113 108 99 104 113 119 126 139 154 155 150 150 156 164 173 180 184 186 187 185 186 195 204 207 205 206 208 208 207 208 209 209 211 212 213 215 215 216 217 218 218 218 218 219 219 221 222 222 222
204 190 178 183 197 196 202 219 216 138 175 181 170 194 211 192 153 147 147 146 192 200 181 179 188 185 168 149 146 157 182 179 162 145 134 136 139 135 123 112 115 121 125 129 138 151 156 153 150 152 158 171 181 185 189 191 190 192 200 206 207 207 207 206 205 206 208 209 211 212 214 215 216 218 219 219 219 219 218 219 219 220 221 222 222 224
238 206 159 137 203 230 237 212 195 204 216 207 203 269 219 186 155 151 146 157 193 187 176 174 171 168 163 153 148 161 184 172 155 145 147 152 153 141 123 115 120 127 131 134 140 149 152 149 148 150 152 162 177 185 189 194 197 199 203 205 205 207 207 205 205 206 207 210 212 214 215 216 217 218 219 220 221 222 222 222 222 221 222 222 223 225
281 201 162 165 206 214 229 216 195 202 222 210 206 254 246 225 180 149 164 214 205 175 172 177 158 153 161 163 155 157 166 163 155 157 161 156 153 151 141 132 135 140 144 144 145 150 150 146 145 149 151 159 173 183 188 193 198 202 204 204 203 204 204 204 204 205 207 210 213 214 215 217 217 217 218 220 221 222 223 224 225 224 223 223 223 224
232 166 161 222 221 206 232 251 250 292 275 234 213 216 213 214 211 159 175 205 162 136 140 147 142 147 160 169 158 148 154 169 167 159 162 165 156 150 149 149 148 147 147 147 149 151 151 148 147 151 155 159 168 178 184 189 195 200 202 202 201 200 200 202 204 206 209 211 213 214 216 217 218 218 218 220 221 222 223 224 225 225 227 229 229 227
137 148 181 207 215 251 271 257 224 7 317 263 230 230 222 194 174 164 150 141 136 131 121 109 116 151 159 165 159 144 151 184 190 164 157 160 154 150 154 154 151 149 148 150 152 154 153 151 152 155 157 158 163 171 177 182 189 195 198 200 200 199 198 200 202 206 209 211 213 215 216 217 219 220 220 221 223 225 226 228 229 230 233 236 237 236
149 178 190 172 174 234 247 217 165 150 243 231 212 213 212 181 153 146 146 150 161 162 141 121 89 68 131 160 164 153 158 182 191 169 158 156 156 160 158 153 150 150 151 152 153 154 155 157 159 159 159 160 164 168 173 178 185 191 196 199 199 199 199 198 199 202 207 210 212 215 216 217 219 221 222 224 225 226 228 231 233 236 238 241 241 242
190 188 181 177 199 227 226 193 169 179 228 234 196 184 183 170 157 162 174 174 178 181 155 136 127 125 142 189 190 168 165 173 174 164 151 144 155 163 163 161 159 158 160 162 161 159 159 163 168 168 166 168 171 174 177 181 186 191 197 200 200 200 202 201 199 202 207 210 214 216 217 218 220 221 223 225 227 228 229 231 233 236 239 241 243 244